H-2A R/B, 49337

Orbit data source: Space-Track

H-2A R/B, 49337 is space debris in HEO originally from a launch on Tue, 26 Oct 2021 UTC launched from the Tanegashima Space Center (TNSTA). Debris objects in space refer to the collection of defunct objects orbiting the Earth. Examples of debris include non-operational satellites, rocket bodies, and fragments generated from explosions, collisions, or faulty payload assembly.

Loading next visibility...
Identifier
49337, 2021-096B
Orbit
HEO
Country
Flag of JPJP / JPN
Related business
Manufacturer
MHI Tobishima
Mission
Spacecraft
Bus & Motor
H-2A STAGE 2, Unknown motor
Mass
4,000 kg wet, 4,000 kg dry
Launch date (UTC)
2021-10-26 (5 years ago)
Launch vehicle
Unknown
Launch site
Tanegashima Space Center (TNSTA)
Object type
Payload
Rocket body
Debris
Shape & HBR
Cyl, 4.6 m
Radar Cross Section
35.186 m², Large (>1 m²)

Expand to show TLE details & history
Last TLE update: 2 days ago

TLE from 2 days ago
0 H-2A R/B
1 49337U 21096B   26171.17651479  .00026736  00000-0  19388-2 0  9996
2 49337  31.6198 136.6595 6805308 154.7665 266.1773  2.93214149 43076
Epoch: 2026-06-20T04:14Z
TLE epoch observation values (Epoch: 2026-06-20T04:14:10.877Z)
Latitude
0.00001°
Longitude
164.70664°
Altitude
22,395.314 km
Speed
2.894 km/s
True Right ascension
09h 06m 35s
True Declination
0° 00' 00"
Sunlit
Object was in daylight at epoch
Visualization orbit readout
Latitude
Unknown
Longitude
Unknown
Altitude
Unknown
Speed
Unknown
Apparent Right ascension
Unknown
Apparent Declination
Unknown
Sunlit
N/A
Visualization observer readout
Local Sidereal Time
21:24:11
Azimuth
Unknown
Elevation
Unknown
Doppler factor
Unknown
Orbital elements
Apogee altitude
28,278.986 km
Perigee altitude
210.188 km
Semi-major axis
20,622.724 km
Eccentricity
0.68053
Inclination
31.6198°
RAAN
136.6595°
Arg. of periapsis
154.7665°
True anomaly
205.28751°
Mean anomaly
266.1773°
Eccentric anomaly
234.45247°
Mean motion
0.73287 °/min
Orbital period
491.22 mins
BSTAR
0.0019388
Loading maneuver chart data...
Computing Atmospheric mass density...
Loading historical data...
Loading historical data...
Loading historical data...
Loading historical data...
Loading historical data...
Loading historical data...
Loading historical data...
Other satellites on launch #96 in the year 2021 (2021-10-26 UTC)

Documentation

Showing up to 5 results
|